Previsão horária em 1-e Itkulovo

Hoje, 15 Janeiro, Sexta-feira

Tempo Temperatura Precipitação Vento Pressão Humidade
00:00 -27°C° 0 mm 6 m/s 719 mmHg 96%
01:00 -27°C° 0 mm 6 m/s 718 mmHg 96%
02:00 -26°C° 0 mm 6 m/s 718 mmHg 96%
03:00 -26°C° 0 mm 6 m/s 717 mmHg 96%
04:00 -25°C° 0 mm 7 m/s 717 mmHg 96%
05:00 -24°C° 0 mm 7 m/s 717 mmHg 95%
06:00 -23°C° 0 mm 7 m/s 716 mmHg 94%
07:00 -21°C° 0 mm 7 m/s 715 mmHg 93%
08:00 -20°C° 0 mm 6 m/s 715 mmHg 93%
09:00 -18°C° 0 mm 6 m/s 715 mmHg 93%
10:00 -18°C° 0 mm 7 m/s 715 mmHg 93%
11:00 -17°C° 0 mm 6 m/s 715 mmHg 92%
12:00 -16°C° 0 mm 6 m/s 714 mmHg 92%
13:00 -15°C° 0 mm 6 m/s 714 mmHg 91%
14:00 -14°C° 0 mm 5 m/s 713 mmHg 92%
15:00 -15°C° 0 mm 5 m/s 713 mmHg 92%
16:00 -15°C° 0 mm 5 m/s 712 mmHg 91%
17:00 -15°C° 0 mm 5 m/s 712 mmHg 92%
18:00 -16°C° 0 mm 4 m/s 711 mmHg 93%
19:00 -16°C° 0 mm 3 m/s 711 mmHg 94%
20:00 -17°C° 0 mm 4 m/s 710 mmHg 94%
21:00 -16°C° 0 mm 4 m/s 710 mmHg 94%
22:00 -16°C° 0 mm 4 m/s 710 mmHg 94%
23:00 -16°C° 0 mm 4 m/s 710 mmHg 95%

Amanhã, 16 Janeiro, Sábado

Tempo Temperatura Precipitação Vento Pressão Humidade
00:00 -15°C° 0 mm 4 m/s 709 mmHg 95%
01:00 -14°C° 0 mm 4 m/s 709 mmHg 95%
02:00 -15°C° 0 mm 4 m/s 708 mmHg 96%
03:00 -15°C° 0 mm 4 m/s 708 mmHg 96%
04:00 -15°C° 0 mm 4 m/s 708 mmHg 96%
05:00 -15°C° 0 mm 4 m/s 707 mmHg 96%
06:00 -15°C° 0 mm 4 m/s 707 mmHg 97%
07:00 -14°C° 0 mm 3 m/s 706 mmHg 97%
08:00 -13°C° 0.1 mm 3 m/s 706 mmHg 96%
09:00 -13°C° 0.1 mm 3 m/s 706 mmHg 95%
10:00 -12°C° 0.1 mm 3 m/s 706 mmHg 95%
11:00 -9°C° 0.1 mm 3 m/s 706 mmHg 95%
12:00 -8°C° 0.1 mm 4 m/s 707 mmHg 94%
13:00 -7°C° 0.1 mm 5 m/s 707 mmHg 94%
14:00 -7°C° 0 mm 5 m/s 707 mmHg 92%
15:00 -9°C° 0 mm 6 m/s 708 mmHg 89%
16:00 -10°C° 0 mm 6 m/s 708 mmHg 87%
17:00 -11°C° 0 mm 6 m/s 708 mmHg 88%
18:00 -14°C° 0 mm 6 m/s 708 mmHg 89%
19:00 -15°C° 0 mm 5 m/s 709 mmHg 90%
20:00 -15°C° 0 mm 5 m/s 709 mmHg 91%
21:00 -17°C° 0 mm 5 m/s 709 mmHg 93%
22:00 -16°C° 0 mm 4 m/s 710 mmHg 94%
23:00 -15°C° 0 mm 5 m/s 709 mmHg 93%

Depois de amanhã, 17 Janeiro, Domingo

Tempo Temperatura Precipitação Vento Pressão Humidade
00:00 -15°C° 0 mm 5 m/s 709 mmHg 93%
01:00 -15°C° 0 mm 6 m/s 709 mmHg 92%
02:00 -15°C° 0.1 mm 6 m/s 709 mmHg 92%
03:00 -14°C° 0.1 mm 7 m/s 708 mmHg 91%
04:00 -14°C° 0.1 mm 7 m/s 708 mmHg 90%
05:00 -16°C° 0 mm 8 m/s 708 mmHg 89%
06:00 -17°C° 0 mm 8 m/s 708 mmHg 87%
07:00 -18°C° 0 mm 8 m/s 708 mmHg 86%
08:00 -19°C° 0 mm 9 m/s 708 mmHg 86%
09:00 -19°C° 0 mm 9 m/s 709 mmHg 87%
10:00 -20°C° 0 mm 9 m/s 709 mmHg 87%
11:00 -20°C° 0 mm 9 m/s 710 mmHg 87%
12:00 -20°C° 0 mm 9 m/s 710 mmHg 87%
13:00 -20°C° 0 mm 9 m/s 710 mmHg 87%
14:00 -19°C° 0 mm 8 m/s 710 mmHg 88%
15:00 -19°C° 0 mm 8 m/s 711 mmHg 88%
16:00 -19°C° 0 mm 7 m/s 711 mmHg 88%
17:00 -21°C° 0 mm 6 m/s 711 mmHg 90%
18:00 -21°C° 0 mm 5 m/s 711 mmHg 92%
19:00 -22°C° 0 mm 4 m/s 711 mmHg 95%
20:00 -22°C° 0 mm 3 m/s 712 mmHg 96%
21:00 -21°C° 0 mm 2 m/s 712 mmHg 97%
22:00 -21°C° 0 mm 1 m/s 712 mmHg 99%
23:00 -21°C° 0 mm 1 m/s 712 mmHg 99%

18 Janeiro, Segunda-feira

Tempo Temperatura Precipitação Vento Pressão Humidade
00:00 -21°C° 0 mm 1 m/s 712 mmHg 99%
01:00 -21°C° 0 mm 1 m/s 712 mmHg 99%
02:00 -21°C° 0 mm 1 m/s 712 mmHg 99%
03:00 -21°C° 0 mm 1 m/s 712 mmHg 98%
04:00 -21°C° 0 mm 1 m/s 712 mmHg 98%
05:00 -20°C° 0 mm 1 m/s 712 mmHg 97%
06:00 -20°C° 0 mm 1 m/s 712 mmHg 95%
07:00 -20°C° 0 mm 0 m/s 712 mmHg 94%
08:00 -18°C° 0 mm 0 m/s 713 mmHg 92%
09:00 -17°C° 0 mm 0 m/s 713 mmHg 90%
10:00 -16°C° 0 mm 0 m/s 713 mmHg 87%
11:00 -14°C° 0 mm 0 m/s 713 mmHg 86%
12:00 -12°C° 0 mm 0 m/s 713 mmHg 84%
13:00 -11°C° 0 mm 0 m/s 713 mmHg 83%
14:00 -12°C° 0 mm 1 m/s 713 mmHg 85%
15:00 -14°C° 0 mm 1 m/s 713 mmHg 86%
16:00 -15°C° 0 mm 1 m/s 712 mmHg 88%
17:00 -16°C° 0 mm 1 m/s 712 mmHg 87%
18:00 -16°C° 0 mm 1 m/s 712 mmHg 86%
19:00 -17°C° 0 mm 1 m/s 712 mmHg 85%
20:00 -17°C° 0 mm 1 m/s 712 mmHg 85%
21:00 -17°C° 0 mm 1 m/s 712 mmHg 85%
22:00 -17°C° 0 mm 1 m/s 712 mmHg 85%
23:00 -17°C° 0 mm 1 m/s 712 mmHg 86%

19 Janeiro, Terça-feira

Tempo Temperatura Precipitação Vento Pressão Humidade
00:00 -19°C° 0 mm 2 m/s 711 mmHg 87%
01:00 -19°C° 0 mm 2 m/s 711 mmHg 87%
02:00 -19°C° 0 mm 2 m/s 711 mmHg 88%
03:00 -19°C° 0 mm 2 m/s 711 mmHg 90%
04:00 -19°C° 0 mm 2 m/s 711 mmHg 91%
05:00 -21°C° 0 mm 3 m/s 710 mmHg 92%
06:00 -22°C° 0 mm 3 m/s 710 mmHg 93%
07:00 -22°C° 0 mm 3 m/s 710 mmHg 94%
08:00 -23°C° 0 mm 4 m/s 710 mmHg 94%
09:00 -22°C° 0 mm 4 m/s 710 mmHg 94%
10:00 -22°C° 0 mm 5 m/s 710 mmHg 94%
11:00 -22°C° 0 mm 5 m/s 710 mmHg 94%
12:00 -21°C° 0 mm 5 m/s 709 mmHg 94%
13:00 -21°C° 0 mm 5 m/s 709 mmHg 94%
14:00 -21°C° 0.4 mm 5 m/s 709 mmHg 94%
15:00 -21°C° 0.4 mm 5 m/s 708 mmHg 95%
16:00 -22°C° 0.4 mm 5 m/s 708 mmHg 96%
17:00 -22°C° 0.3 mm 5 m/s 708 mmHg 96%
18:00 -22°C° 0.3 mm 4 m/s 708 mmHg 96%
19:00 -23°C° 0.3 mm 4 m/s 708 mmHg 96%
20:00 -23°C° 0.3 mm 4 m/s 708 mmHg 96%
21:00 -22°C° 0.3 mm 3 m/s 709 mmHg 96%
22:00 -22°C° 0.3 mm 3 m/s 709 mmHg 96%
23:00 -20°C° 0.2 mm 2 m/s 709 mmHg 97%

20 Janeiro, Quarta-feira

Tempo Temperatura Precipitação Vento Pressão Humidade
00:00 -21°C° 0.2 mm 2 m/s 710 mmHg 97%
01:00 -19°C° 0.2 mm 1 m/s 710 mmHg 98%
02:00 -20°C° 0.1 mm 1 m/s 710 mmHg 98%
03:00 -20°C° 0.1 mm 1 m/s 711 mmHg 98%
04:00 -20°C° 0.1 mm 1 m/s 711 mmHg 98%
05:00 -21°C° 0 mm 1 m/s 712 mmHg 98%
06:00 -21°C° 0 mm 1 m/s 712 mmHg 98%
07:00 -21°C° 0 mm 0 m/s 713 mmHg 98%
08:00 -21°C° 0 mm 0 m/s 714 mmHg 98%
09:00 -20°C° 0 mm 0 m/s 714 mmHg 97%
10:00 -20°C° 0 mm 0 m/s 715 mmHg 96%
11:00 -19°C° 0 mm 0 m/s 715 mmHg 95%
12:00 -18°C° 0 mm 0 m/s 716 mmHg 93%
13:00 -17°C° 0 mm 0 m/s 716 mmHg 91%
14:00 -18°C° 0 mm 0 m/s 716 mmHg 93%
15:00 -18°C° 0 mm 1 m/s 717 mmHg 95%
16:00 -19°C° 0 mm 1 m/s 717 mmHg 97%
17:00 -20°C° 0 mm 1 m/s 717 mmHg 98%
18:00 -21°C° 0 mm 1 m/s 718 mmHg 98%
19:00 -22°C° 0 mm 1 m/s 718 mmHg 99%
20:00 -22°C° 0 mm 1 m/s 718 mmHg 99%
21:00 -22°C° 0 mm 1 m/s 719 mmHg 99%
22:00 -22°C° 0 mm 1 m/s 719 mmHg 99%
23:00 -22°C° 0 mm 1 m/s 719 mmHg 99%
Mostrar mais